KF4HJW Weather Reports


Display with metric or nautical units.
time (UTC)temp
F
wind
direction
speed
MPH
gust
MPH
rain 1hr
in
rain 24hr
in
rain mn
in
humidity
%
barometer
mb
20260507140307 57 360 1.0 12.0 0.00 0.31 0.30 93 1010.0
20260507135807 57 360 2.0 12.0 0.00 0.31 0.30 93 1009.9
20260507135307 57 360 6.0 7.0 0.00 0.31 0.30 93 1009.9
20260507134807 58 360 1.0 7.0 0.00 0.31 0.30 93 1010.0
20260507134307 58 360 2.0 11.0 0.00 0.31 0.30 93 1009.9
20260507133807 58 360 4.0 11.0 0.00 0.31 0.30 93 1009.9
20260507133307 58 360 0.0 7.0 0.00 0.31 0.30 93 1010.0
20260507132807 59 360 4.0 7.0 0.00 0.31 0.30 94 1010.1
20260507132308 59 360 4.0 7.0 0.00 0.31 0.30 94 1010.1
20260507131807 59 360 1.0 7.0 0.01 0.31 0.30 94 1009.9
20260507131307 59 360 0.0 6.0 0.01 0.31 0.30 95 1009.9
20260507130807 59 360 0.0 6.0 0.01 0.31 0.30 95 1010.0
20260507130307 59 360 1.0 5.0 0.02 0.31 0.30 95 1009.9
20260507125807 59 360 2.0 5.0 0.03 0.31 0.30 95 1009.8
20260507125307 59 360 1.0 7.0 0.04 0.31 0.30 95 1009.8
20260507124307 59 360 1.0 6.0 0.05 0.31 0.30 94 1009.9
20260507123807 59 360 2.0 4.0 0.05 0.31 0.30 95 1009.9
20260507123307 59 360 0.0 7.0 0.06 0.31 0.30 94 1009.8
20260507122807 59 360 4.0 7.0 0.06 0.31 0.30 94 1009.7
20260507122307 59 360 1.0 7.0 0.06 0.31 0.30 93 1009.6
20260507121807 60 360 1.0 6.0 0.06 0.30 0.29 93 1009.2
20260507121307 60 360 0.0 8.0 0.07 0.30 0.29 93 1010.1
20260507120807 60 360 2.0 10.0 0.08 0.30 0.29 93 1010.0
20260507120307 61 360 1.0 10.0 0.07 0.29 0.28 93 1009.7
20260507115807 61 360 0.0 4.0 0.06 0.28 0.27 94 1009.7
20260507114807 62 360 1.0 7.0 0.05 0.26 0.25 94 1009.8
20260507113807 63 360 0.0 6.0 0.06 0.26 0.25 93 1009.8
20260507112807 64 360 4.0 7.0 0.06 0.25 0.24 94 1009.3
20260507111807 65 360 0.0 5.0 0.06 0.24 0.23 94 1009.0
20260507111307 65 360 0.0 7.0 0.06 0.23 0.22 94 1009.0
20260507110807 65 360 0.0 7.0 0.06 0.22 0.21 94 1009.0
20260507110307 66 360 0.0 5.0 0.06 0.22 0.21 94 1008.9
20260507105807 66 360 1.0 6.0 0.07 0.22 0.21 94 1008.9
20260507105307 67 360 4.0 6.0 0.07 0.21 0.20 94 1008.7
20260507104807 67 360 1.0 1.0 0.08 0.21 0.20 95 1008.7
20260507104306 67 360 0.0 1.0 0.08 0.20 0.19 95 1008.7
20260507103807 67 360 0.0 1.0 0.09 0.20 0.19 95 1008.7
20260507103307 67 360 0.0 1.0 0.09 0.19 0.18 95 1008.6
20260507102807 67 360 0.0 5.0 0.10 0.19 0.18 95 1008.5
20260507102307 67 360 0.0 5.0 0.11 0.18 0.17 95 1008.5
20260507101307 67 360 0.0 4.0 0.10 0.17 0.16 95 1008.4
20260507100307 67 360 0.0 5.0 0.09 0.16 0.15 94 1008.3
20260507095806 67 360 0.0 5.0 0.08 0.15 0.14 94 1008.3
20260507095306 67 360 0.0 4.0 0.07 0.14 0.13 94 1008.3
20260507094807 67 360 0.0 2.0 0.07 0.13 0.12 94 1008.4
20260507094307 67 360 0.0 4.0 0.06 0.12 0.11 94 1008.5
20260507093807 67 360 0.0 4.0 0.05 0.11 0.10 93 1008.5
20260507093306 67 360 1.0 4.0 0.04 0.10 0.09 93 1008.4
20260507092807 67 360 0.0 4.0 0.03 0.09 0.08 93 1008.4
20260507092307 67 360 1.0 4.0 0.01 0.07 0.06 93 1008.3
20260507091807 67 360 0.0 9.0 0.01 0.07 0.06 93 1008.0
20260507091307 67 360 0.0 9.0 0.01 0.07 0.06 92 1007.8
20260507090807 67 360 2.0 7.0 0.01 0.07 0.06 93 1007.7
20260507090306 67 360 6.0 8.0 0.01 0.07 0.06 93 1007.7
20260507085807 67 360 6.0 10.0 0.01 0.07 0.06 93 1007.7
20260507085307 67 360 2.0 10.0 0.01 0.07 0.06 93 1007.7
20260507084806 68 360 4.0 11.0 0.00 0.06 0.05 93 1007.7
20260507084306 68 360 2.0 11.0 0.00 0.06 0.05 93 1007.7
20260507083806 68 360 4.0 8.0 0.00 0.06 0.05 93 1007.7
20260507083306 68 360 7.0 8.0 0.00 0.06 0.05 93 1007.8
20260507082806 68 360 4.0 9.0 0.00 0.06 0.05 93 1008.1
20260507082307 68 360 7.0 9.0 0.00 0.06 0.05 93 1008.2
20260507081806 68 360 5.0 8.0 0.00 0.06 0.05 93 1008.0
20260507081306 68 360 1.0 8.0 0.00 0.06 0.05 93 1007.8
20260507080806 68 360 2.0 10.0 0.00 0.06 0.05 93 1007.9
20260507080306 68 360 4.0 11.0 0.00 0.06 0.05 93 1008.0
20260507075806 68 360 5.0 11.0 0.00 0.06 0.05 93 1008.1
20260507074806 68 360 3.0 11.0 0.00 0.06 0.05 92 1008.3
20260507074306 68 360 1.0 11.0 0.00 0.06 0.05 92 1008.3
20260507073806 68 360 4.0 13.0 0.00 0.06 0.05 92 1008.3
20260507073306 68 360 5.0 13.0 0.00 0.06 0.05 92 1008.3
20260507072806 68 360 2.0 11.0 0.00 0.06 0.05 93 1008.2
20260507072308 68 360 6.0 9.0 0.00 0.06 0.05 93 1008.3
20260507071806 68 360 3.0 10.0 0.00 0.06 0.05 93 1008.3
20260507071306 68 360 5.0 10.0 0.01 0.06 0.05 93 1008.3
20260507070306 68 360 6.0 8.0 0.02 0.06 0.05 93 1008.5
20260507065806 68 360 2.0 9.0 0.02 0.06 0.05 92 1008.6
20260507065306 68 360 4.0 9.0 0.02 0.06 0.05 92 1008.5
20260507064806 68 360 1.0 7.0 0.03 0.06 0.05 92 1008.4
20260507063806 68 360 2.0 9.0 0.03 0.06 0.05 92 1008.2
20260507063306 68 360 1.0 6.0 0.03 0.06 0.05 92 1008.3
20260507062306 68 360 1.0 6.0 0.03 0.06 0.05 92 1008.2
20260507061806 68 360 0.0 5.0 0.04 0.06 0.05 92 1007.9
20260507061306 68 360 0.0 6.0 0.03 0.05 0.04 91 1007.9
20260507060306 68 360 3.0 8.0 0.02 0.04 0.03 91 1008.7
20260507055806 68 360 0.0 6.0 0.02 0.04 0.03 91 1009.0
20260507055306 68 360 0.0 7.0 0.02 0.04 0.03 90 1009.1
20260507054806 68 360 2.0 9.0 0.02 0.03 0.02 90 1009.2
20260507054306 68 360 1.0 9.0 0.02 0.03 0.02 90 1009.4
20260507053807 68 360 2.0 8.0 0.02 0.03 0.02 90 1009.2
20260507053306 68 360 0.0 8.0 0.02 0.03 0.02 89 1009.2
20260507052806 69 360 2.0 6.0 0.02 0.03 0.02 89 1009.3
20260507052307 69 360 0.0 5.0 0.02 0.03 0.02 88 1009.5
20260507051306 69 360 2.0 7.0 0.01 0.02 0.01 88 1009.7
20260507050806 69 360 1.0 7.0 0.01 0.02 0.01 87 1009.9
20260507050306 69 360 1.0 6.0 0.01 0.02 0.01 86 1009.8
20260507045806 70 252 0.0 6.0 0.01 0.02 0.01 86 1009.7
20260507045307 70 246 0.0 6.0 0.01 0.02 0.01 85 1009.6
20260507044806 70 239 3.0 6.0 0.00 0.01 0.00 84 1009.5
20260507044306 70 266 0.0 5.0 0.00 0.01 0.00 84 1009.3
20260507043806 70 196 0.0 5.0 0.00 0.01 0.00 83 1009.2
20260507043306 70 230 1.0 5.0 0.00 0.01 0.00 82 1009.2
20260507042806 71 223 0.0 6.0 0.00 0.01 0.00 81 1009.2
20260507042307 71 205 3.0 6.0 0.00 0.01 0.00 81 1009.4
20260507041806 71 230 2.0 8.0 0.00 0.01 0.00 80 1009.5
20260507041306 71 227 5.0 8.0 0.00 0.01 0.00 79 1009.4
20260507040306 71 244 1.0 6.0 0.00 0.01 0.00 79 1009.3
20260507035306 72 253 1.0 7.0 0.00 0.01 0.01 78 1009.5
20260507034806 72 242 0.0 6.0 0.00 0.01 0.01 78 1009.3
20260507034306 72 246 0.0 6.0 0.00 0.01 0.01 77 1009.2
20260507033806 72 220 4.0 8.0 0.00 0.01 0.01 77 1009.1
20260507033306 72 239 4.0 8.0 0.00 0.01 0.01 77 1009.0
20260507032806 72 247 4.0 8.0 0.00 0.01 0.01 77 1009.0
20260507031806 72 255 0.0 6.0 0.00 0.01 0.01 77 1009.0
20260507031306 72 211 4.0 6.0 0.00 0.01 0.01 77 1009.0
20260507030806 72 255 4.0 9.0 0.00 0.01 0.01 76 1008.8
20260507030306 72 255 4.0 9.0 0.00 0.01 0.01 76 1008.8
20260507025806 72 223 2.0 8.0 0.00 0.01 0.01 76 1008.9
20260507025307 72 226 3.0 9.0 0.00 0.01 0.01 76 1008.9
20260507024806 72 248 4.0 9.0 0.00 0.01 0.01 76 1009.0
20260507024306 72 267 5.0 8.0 0.00 0.01 0.01 76 1009.3
20260507023806 72 265 4.0 9.0 0.00 0.01 0.01 76 1009.3
20260507023306 72 243 0.0 9.0 0.00 0.01 0.01 76 1009.2
20260507022806 72 230 5.0 6.0 0.00 0.01 0.01 76 1009.1
20260507022306 72 215 0.0 6.0 0.00 0.01 0.01 76 1009.5
20260507021806 72 245 0.0 6.0 0.00 0.01 0.01 75 1009.5
20260507021306 72 238 2.0 6.0 0.00 0.01 0.01 75 1009.5
20260507020806 72 229 0.0 6.0 0.00 0.01 0.01 75 1009.5
20260507020306 72 243 1.0 4.0 0.00 0.01 0.01 74 1009.4
20260507015806 72 242 0.0 6.0 0.00 0.01 0.01 74 1009.3
20260507015306 72 231 1.0 6.0 0.00 0.01 0.01 74 1009.4
20260507014806 72 230 1.0 6.0 0.00 0.01 0.01 74 1009.5
20260507014306 72 209 0.0 6.0 0.00 0.01 0.01 74 1009.4
20260507013806 73 248 1.0 6.0 0.00 0.01 0.01 74 1009.6
20260507013306 73 246 2.0 7.0 0.00 0.01 0.01 73 1009.5
20260507012806 73 232 4.0 7.0 0.00 0.01 0.01 73 1009.3
20260507012307 73 263 0.0 7.0 0.00 0.01 0.01 73 1009.3
20260507011806 73 236 1.0 5.0 0.00 0.01 0.01 73 1009.2
20260507011306 73 240 5.0 5.0 0.00 0.01 0.01 73 1009.3
20260507010306 73 253 0.0 4.0 0.00 0.01 0.01 72 1009.3
20260507005306 73 240 0.0 8.0 0.00 0.01 0.01 71 1009.5
20260507004806 73 211 0.0 8.0 0.00 0.01 0.01 71 1009.5
20260507003806 73 221 0.0 6.0 0.00 0.01 0.01 71 1009.6
20260507003306 73 235 0.0 5.0 0.00 0.01 0.01 70 1009.6
20260507002806 73 248 0.0 5.0 0.00 0.01 0.01 70 1009.6
20260507001806 74 240 0.0 1.0 0.00 0.01 0.01 69 1009.3
20260507001306 74 240 0.0 0.0 0.00 0.01 0.01 69 1009.4
20260507000806 74 240 0.0 2.0 0.00 0.01 0.01 68 1009.4
20260507000306 75 239 0.0 5.0 0.00 0.01 0.01 68 1009.3
20260506235805 75 248 0.0 5.0 0.00 0.01 0.01 67 1009.2
20260506235307 75 210 0.0 5.0 0.00 0.01 0.01 66 1009.2
20260506234806 75 250 1.0 6.0 0.00 0.01 0.01 66 1009.1
20260506234306 75 232 2.0 6.0 0.00 0.01 0.01 66 1009.0
20260506233805 75 207 6.0 9.0 0.00 0.01 0.01 66 1008.9
20260506233305 75 225 5.0 9.0 0.00 0.01 0.01 65 1008.9
20260506232806 76 236 4.0 7.0 0.00 0.01 0.01 65 1008.9
20260506232306 76 244 2.0 8.0 0.00 0.01 0.01 65 1008.8
20260506231805 76 247 0.0 9.0 0.00 0.01 0.01 64 1008.7
20260506231305 76 205 0.0 9.0 0.00 0.01 0.01 64 1008.7
20260506230805 76 225 4.0 9.0 0.00 0.01 0.01 64 1008.8
20260506230305 76 227 6.0 9.0 0.00 0.01 0.01 63 1008.7
20260506225805 76 250 0.0 9.0 0.00 0.01 0.01 63 1008.6
20260506225306 76 265 9.0 9.0 0.00 0.01 0.01 63 1008.7
20260506224805 76 230 4.0 8.0 0.00 0.01 0.01 62 1008.7
20260506223805 77 257 0.0 9.0 0.00 0.01 0.01 62 1008.6
20260506223305 77 232 1.0 9.0 0.00 0.01 0.01 61 1008.6
20260506222805 77 257 1.0 9.0 0.00 0.01 0.01 62 1008.6
20260506222306 77 293 2.0 9.0 0.00 0.01 0.01 61 1008.7
20260506221805 77 229 0.0 10.0 0.00 0.01 0.01 61 1008.7
20260506221305 77 248 1.0 10.0 0.00 0.01 0.01 62 1008.7
20260506220805 77 271 7.0 7.0 0.00 0.01 0.01 62 1008.7
20260506220305 76 275 5.0 6.0 0.00 0.01 0.01 62 1008.6
20260506214805 76 237 1.0 6.0 0.00 0.01 0.01 63 1008.6
20260506214305 76 246 0.0 6.0 0.00 0.01 0.01 63 1008.5
20260506213805 76 246 0.0 7.0 0.00 0.01 0.01 63 1008.5
20260506212805 76 225 0.0 7.0 0.00 0.01 0.01 63 1008.6
20260506211805 76 208 0.0 10.0 0.00 0.01 0.01 62 1008.6
20260506211305 76 226 5.0 11.0 0.00 0.01 0.01 62 1008.4
20260506210805 76 217 0.0 11.0 0.00 0.01 0.01 62 1008.3
20260506210306 76 250 1.0 11.0 0.00 0.01 0.01 62 1008.3
20260506205805 76 196 0.0 11.0 0.00 0.01 0.01 62 1008.1
20260506205306 76 252 0.0 11.0 0.00 0.01 0.01 61 1008.0
20260506204805 76 249 5.0 11.0 0.00 0.01 0.01 62 1008.2
20260506204305 76 251 3.0 12.0 0.00 0.01 0.01 62 1008.1
20260506203805 77 263 1.0 12.0 0.00 0.01 0.01 61 1008.2
20260506203305 77 230 2.0 15.0 0.00 0.01 0.01 61 1008.2
20260506202806 77 228 0.0 15.0 0.00 0.01 0.01 61 1008.2
20260506202306 77 227 5.0 18.0 0.00 0.01 0.01 60 1008.2
20260506201305 77 195 5.0 19.0 0.00 0.01 0.01 60 1008.5
20260506200805 77 221 4.0 14.0 0.00 0.01 0.01 61 1008.4
20260506195805 76 219 7.0 12.0 0.00 0.01 0.01 62 1008.7
20260506194805 76 244 2.0 15.0 0.01 0.01 0.01 62 1009.1
20260506194305 76 229 8.0 15.0 0.01 0.01 0.01 63 1009.4
20260506193805 76 227 1.0 15.0 0.01 0.01 0.01 64 1009.5
20260506192306 73 258 5.0 14.0 0.01 0.01 0.01 71 1009.8
20260506191805 73 234 6.0 12.0 0.01 0.01 0.01 72 1009.8
20260506191305 73 360 8.0 12.0 0.01 0.01 0.01 73 1009.9
20260506190805 73 360 4.0 16.0 0.01 0.01 0.01 75 1010.1
20260506190305 73 360 2.0 16.0 0.01 0.01 0.01 74 1010.3
20260506185805 74 296 8.0 15.0 0.01 0.01 0.01 71 1010.3
20260506185307 76 215 6.0 12.0 0.00 0.00 0.00 68 1010.3
20260506184805 76 210 5.0 11.0 0.00 0.00 0.00 64 1010.3
20260506184305 77 240 5.0 11.0 0.00 0.00 0.00 64 1010.3
20260506183805 76 231 11.0 11.0 0.00 0.00 0.00 65 1010.4
20260506183305 76 252 5.0 11.0 0.00 0.00 0.00 65 1010.4
20260506182805 76 246 4.0 12.0 0.00 0.00 0.00 65 1010.4
20260506182306 76 229 4.0 14.0 0.00 0.00 0.00 66 1010.3
20260506181305 76 242 5.0 13.0 0.00 0.00 0.00 67 1010.4
20260506180805 75 207 1.0 13.0 0.00 0.00 0.00 68 1010.5
20260506180305 75 256 7.0 13.0 0.00 0.00 0.00 68 1010.4
20260506175805 75 211 4.0 15.0 0.00 0.00 0.00 68 1010.4
20260506175306 75 238 2.0 15.0 0.00 0.00 0.00 67 1010.6
20260506174305 74 229 9.0 13.0 0.00 0.00 0.00 69 1010.6
20260506173305 74 258 4.0 14.0 0.00 0.00 0.00 69 1010.7
20260506172805 74 234 8.0 10.0 0.00 0.00 0.00 69 1010.9
20260506172307 74 261 4.0 12.0 0.00 0.00 0.00 70 1010.9
20260506171805 73 230 0.0 12.0 0.00 0.00 0.00 70 1011.0
20260506171305 73 252 4.0 15.0 0.00 0.00 0.00 71 1011.1
20260506170805 73 239 1.0 15.0 0.00 0.00 0.00 71 1011.4
20260506170305 73 255 4.0 10.0 0.00 0.00 0.00 71 1011.7
20260506165805 72 239 6.0 11.0 0.00 0.00 0.00 71 1011.7
20260506165306 72 248 3.0 11.0 0.00 0.00 0.00 72 1012.0
20260506164805 72 239 1.0 11.0 0.00 0.00 0.00 72 1012.0
20260506164305 72 266 7.0 12.0 0.00 0.00 0.00 72 1011.9
20260506163805 72 270 2.0 14.0 0.00 0.00 0.00 72 1011.9
20260506163304 72 221 4.0 14.0 0.00 0.00 0.00 72 1011.8
20260506162804 71 236 6.0 12.0 0.00 0.00 0.00 73 1011.8
20260506161805 71 218 8.0 15.0 0.00 0.00 0.00 74 1011.9
20260506161305 71 256 2.0 15.0 0.00 0.00 0.00 75 1011.8
20260506160805 71 242 5.0 15.0 0.00 0.00 0.00 74 1011.9
20260506155805 71 285 1.0 12.0 0.00 0.00 0.00 75 1012.0
20260506155306 70 213 4.0 12.0 0.00 0.00 0.00 75 1012.2
20260506154805 70 235 4.0 12.0 0.00 0.00 0.00 75 1012.5
20260506154305 70 228 5.0 12.0 0.00 0.00 0.00 75 1012.5
20260506153305 70 224 3.0 12.0 0.00 0.00 0.00 74 1012.6
20260506152804 70 258 7.0 12.0 0.00 0.00 0.00 74 1012.5
20260506152306 70 261 3.0 11.0 0.00 0.00 0.00 74 1012.5
20260506151804 71 219 5.0 16.0 0.00 0.00 0.00 73 1012.6
20260506151304 71 215 6.0 16.0 0.00 0.00 0.00 73 1012.7
20260506150805 71 257 6.0 16.0 0.00 0.00 0.00 73 1012.7
20260506150305 71 244 5.0 16.0 0.00 0.00 0.00 72 1012.7
20260506145804 71 261 0.0 14.0 0.00 0.00 0.00 74 1012.8
20260506145306 71 228 7.0 14.0 0.00 0.00 0.00 73 1012.8
20260506144805 71 219 8.0 16.0 0.00 0.00 0.00 72 1012.7
20260506143804 71 213 2.0 13.0 0.00 0.00 0.00 72 1012.5
20260506143304 71 248 0.0 13.0 0.00 0.00 0.00 73 1012.4
20260506142804 70 244 5.0 21.0 0.00 0.00 0.00 73 1012.5
20260506142306 70 250 5.0 21.0 0.00 0.00 0.00 73 1012.3
20260506141304 71 210 8.0 13.0 0.00 0.00 0.00 73 1012.4
20260506140804 71 244 9.0 14.0 0.00 0.00 0.00 74 1012.6